Terug naar catalogus

DELTA 1 DEB

ActiefPO
NORAD 21283·DEBRIS·🇺🇸 United States

Gelanceerd Jun 12, 1975 vanaf Vandenberg Space Force Base

Loading…

Volgende Passages (komende 24 uur)

TLE

VersSource: Space-Track

Epoch: Sep 14, 2026, 11:40 UTC

1 21283U 75052U   26257.48622520 -.00000164  00000-0 -38013-3 0  9997
2 21283  99.7934 342.4117 0243096  61.6503 312.5227 12.97993543674355

Volg DELTA 1 DEB in realtime met AllMySat

Download on the App Store